Theta_e
294 293 293 291 288 286 286 287 288 281 283 283 288 288 284 288 291 291 291 294 297 298 297 298 298 298 298 299 299 300 300 301 302 303 304 305 306 307
293 290 290 290 291 286 286 286 285 287 284 282 287 287 286 288 289 292 292 292 294 296 297 297 296 296 296 297 298 298 299 299 301 301 302 304 304 306
293 291 291 291 291 289 286 284 284 285 284 282 284 285 285 284 284 284 283 284 285 292 293 294 294 294 295 295 296 296 297 297 298 299 300 301 302 303
291 291 291 290 290 289 288 287 287 285 284 282 283 284 284 281 279 283 283 284 281 288 291 292 292 293 293 294 294 294 294 295 296 296 298 299 300 301
290 290 290 289 289 289 289 287 286 284 281 281 281 284 283 283 283 283 282 281 283 287 290 291 291 290 291 292 292 292 292 293 293 294 296 297 297 298
289 290 290 290 290 289 288 288 285 284 282 282 281 282 282 282 279 280 280 279 281 283 285 286 287 287 288 289 290 290 291 292 293 294 294 295 295 296
288 288 289 289 290 290 289 287 287 285 284 282 280 280 280 280 281 280 280 280 280 278 278 279 279 280 281 284 285 287 289 291 292 293 293 293 294 295
288 287 288 287 289 291 291 291 290 287 285 284 281 281 282 281 280 280 277 276 277 276 275 277 277 278 279 278 285 288 289 290 291 292 292 292 293 294
288 287 286 287 287 288 291 291 290 291 290 287 284 283 281 282 282 279 279 276 275 276 275 274 276 277 279 280 286 288 289 289 290 290 291 292 292 292
288 287 287 286 287 287 287 286 286 287 287 285 285 284 284 284 284 282 281 277 274 274 273 272 273 275 277 277 285 287 288 288 288 288 288 289 289 290
287 287 287 286 288 289 287 286 285 285 288 288 288 288 288 287 284 281 278 277 272 273 272 273 274 273 273 275 278 287 287 287 287 287 287 287 287 287
285 286 285 287 288 289 286 285 284 284 284 284 285 286 287 286 286 283 280 277 275 273 274 273 272 272 272 274 274 275 277 285 285 286 286 286 287 277
284 284 285 288 288 290 289 286 286 285 286 284 283 283 283 282 283 281 281 279 276 277 277 275 270 269 268 271 273 273 274 275 276 278 283 284 285 284
283 283 284 288 289 290 288 288 288 286 284 283 282 281 281 282 282 282 281 280 279 279 279 276 273 271 268 268 272 274 273 274 274 274 273 279 282 283
283 284 286 288 289 289 288 288 285 284 282 281 280 280 280 280 279 279 279 280 280 280 280 280 279 274 272 270 270 270 273 273 272 270 269 269 269 269
284 284 285 286 287 285 285 285 282 282 281 281 280 279 278 276 274 276 276 277 277 277 275 274 278 277 270 272 274 275 271 268 269 269 267 267 267 267
281 283 283 282 282 282 282 282 280 280 280 280 279 278 277 277 275 278 278 276 272 270 272 271 273 276 277 276 275 270 266 264 266 268 267 268 267 266
277 275 275 279 279 280 280 279 280 280 279 279 279 278 277 277 275 276 274 272 271 272 274 272 266 266 267 266 276 273 269 266 266 265 263 265 266 268
274 275 277 278 278 278 278 277 276 278 279 279 278 278 278 276 276 276 274 269 266 264 262 261 262 264 261 260 265 276 272 265 264 264 262 260 262 269
277 276 275 275 277 277 277 276 275 276 276 276 277 276 276 274 270 271 267 266 262 259 259 258 261 261 263 264 264 264 274 262 259 257 258 258 264 273
277 277 276 275 275 276 276 276 275 275 275 274 274 273 272 270 265 266 266 265 263 258 258 260 263 262 257 257 260 261 262 271 267 257 256 254 257 257
275 275 276 275 275 276 275 274 273 273 272 271 271 270 268 269 266 264 264 261 259 260 258 256 256 256 256 257 255 254 257 257 264 270 272 269 259 259
270 274 275 275 276 275 274 273 272 271 270 270 269 268 267 265 265 265 263 261 260 256 255 255 252 253 250 252 252 251 251 253 254 255 258 271 272 272
Wind_Speed
10 9 6 4 3 3 3 4 6 4 5 3 4 3 2 3 6 5 5 7 7 10 11 10 11 12 12 13 14 15 15 16 16 17 17 16 17 17
7 9 6 4 6 3 3 3 3 5 3 1 2 1 3 2 4 4 4 5 6 7 9 10 12 13 14 15 15 15 16 16 17 17 18 17 17 17
7 10 10 7 6 5 3 2 3 4 4 1 1 1 1 2 2 1 1 2 2 6 7 9 11 15 15 16 17 18 18 19 18 18 17 18 17 18
11 9 9 7 8 8 6 7 5 4 5 4 2 2 2 3 2 1 2 3 2 6 8 9 12 14 16 17 18 18 19 19 19 18 17 18 16 16
10 11 10 10 9 7 7 7 5 3 3 4 4 1 2 1 1 1 3 3 3 7 10 11 12 14 15 16 17 16 17 18 17 17 15 16 14 16
8 8 8 12 11 11 9 9 6 6 3 4 3 3 2 3 2 3 2 2 2 2 5 5 8 10 12 15 16 14 14 15 15 15 12 14 14 14
8 8 8 9 11 11 8 9 10 7 5 4 3 3 3 3 5 3 3 1 1 1 1 2 2 3 4 8 8 10 12 12 13 13 12 13 13 13
9 8 7 9 12 17 17 17 16 13 10 6 3 4 5 4 3 3 3 3 2 1 1 3 1 2 3 2 6 8 8 8 9 9 10 11 12 10
8 8 7 6 8 9 14 14 14 16 13 12 10 5 5 6 6 4 3 3 3 2 3 2 2 3 2 3 6 6 5 4 5 6 7 8 8 8
9 9 9 9 11 11 10 9 9 8 7 5 6 6 4 6 6 4 6 4 1 0 2 1 1 3 4 2 7 5 6 6 7 6 6 7 8 9
6 8 9 10 14 18 12 11 9 7 11 14 13 13 13 12 10 6 4 3 0 2 0 3 1 2 2 3 3 8 9 7 9 9 8 9 10 8
4 6 11 10 16 21 12 13 12 11 11 9 7 8 9 9 15 6 6 4 3 1 2 3 1 1 3 2 2 2 3 6 11 9 11 11 10 2
4 4 4 15 17 22 19 12 12 13 14 9 7 6 5 6 6 4 6 4 3 2 4 3 2 0 1 3 3 2 1 3 3 4 10 12 11 8
4 3 4 16 18 21 17 15 17 14 8 8 7 6 6 5 5 5 5 3 3 3 4 4 2 3 2 2 3 3 2 2 1 2 2 8 10 10
3 7 11 16 18 16 16 17 15 7 8 7 7 5 4 4 5 5 4 5 4 2 2 2 2 3 3 3 2 2 3 3 2 1 3 2 2 2
6 5 7 9 9 8 10 11 6 6 7 6 6 5 4 4 2 2 2 3 3 2 4 2 1 3 1 2 2 3 1 2 3 3 2 2 3 1
4 4 5 6 6 6 6 6 6 6 6 5 6 5 5 5 3 3 3 3 3 3 1 2 4 1 2 3 3 2 2 2 2 2 3 4 2 3
3 2 2 5 6 6 6 6 6 7 5 5 6 6 6 6 4 2 2 2 3 2 2 2 3 4 4 4 5 3 2 1 2 2 1 1 4 4
3 2 3 4 5 5 5 5 3 5 7 6 6 6 5 5 6 5 3 3 2 2 1 1 2 2 2 1 4 4 1 1 3 3 1 2 4 9
3 4 4 4 4 5 5 4 5 5 5 5 6 5 5 6 3 4 3 3 3 1 2 2 2 1 4 4 2 3 6 2 1 2 3 3 7 16
4 4 4 4 5 5 5 6 7 5 5 5 5 4 4 4 3 4 4 4 5 2 2 1 1 2 1 2 3 4 4 8 4 3 3 2 4 4
3 4 4 4 5 6 6 6 5 6 5 4 5 5 4 4 4 5 4 4 2 3 2 1 3 2 3 2 2 4 4 4 8 11 13 8 3 4
2 3 3 4 5 6 6 6 6 5 4 5 5 5 5 4 4 4 4 4 5 3 2 1 2 3 2 2 1 2 4 5 3 4 5 8 13 14
Wind_Direction
185 174 175 176 157 151 144 148 148 171 238 231 189 179 204 161 181 171 189 213 227 250 257 261 270 278 285 290 289 291 293 290 291 289 284 284 284 285
177 171 176 153 181 164 156 152 135 152 206 153 183 148 188 181 159 164 192 212 222 245 264 268 276 281 284 282 285 287 289 291 292 289 287 285 284 286
178 181 195 168 176 175 158 139 145 134 149 136 122 95 107 167 153 138 151 198 247 249 256 270 278 276 278 280 283 285 286 286 286 288 288 285 288 291
183 182 194 175 182 173 175 184 174 163 130 152 144 140 164 197 127 150 233 218 211 246 258 274 278 279 281 282 282 284 287 285 283 282 286 286 291 294
184 192 191 174 188 175 181 178 161 137 114 126 141 120 113 139 134 223 227 240 233 251 263 274 282 285 285 283 282 284 287 287 281 279 280 286 288 290
178 186 180 188 193 185 181 180 154 147 138 122 136 139 153 160 155 167 232 209 235 225 250 258 279 280 285 283 277 278 282 283 282 279 281 287 288 292
180 181 182 186 185 187 179 175 164 164 158 154 134 141 157 157 191 173 154 130 269 152 291 277 262 272 280 289 279 275 279 278 282 286 288 288 290 289
190 182 167 177 191 186 190 188 182 173 184 171 156 175 173 157 137 147 130 130 247 228 116 278 274 281 269 268 279 282 283 282 283 287 291 287 283 283
188 179 171 169 179 191 192 185 194 197 183 179 184 178 153 161 133 125 145 145 207 210 122 287 354 301 294 321 323 311 309 310 323 325 324 325 327 325
187 178 178 167 185 180 169 172 179 179 175 143 140 136 122 144 137 152 162 142 57 330 132 203 11 283 324 316 1 17 34 28 25 12 1 352 344 340
178 177 182 181 186 182 176 175 175 165 151 138 134 139 138 146 145 124 144 127 193 264 287 127 271 288 301 304 339 55 46 45 37 28 18 358 344 354
157 180 188 181 183 185 181 173 179 169 148 141 144 149 158 163 162 171 154 149 133 349 227 136 0 19 337 290 300 336 353 31 2 354 346 339 335 358
175 176 181 194 191 192 188 185 188 155 156 154 145 144 151 152 159 159 166 144 137 174 200 122 153 249 75 304 307 331 22 323 344 346 0 355 344 343
170 162 182 199 198 196 186 182 163 154 150 148 150 156 164 169 161 160 163 135 102 152 165 149 146 156 121 329 272 339 318 327 85 346 349 343 344 344
149 181 188 201 196 189 162 155 145 148 147 156 164 160 150 129 116 98 80 101 114 128 145 152 178 169 157 215 261 313 341 318 37 338 317 331 299 328
167 178 190 179 162 138 147 146 133 143 152 157 147 123 114 114 105 131 119 133 112 117 22 12 195 155 186 217 202 289 287 309 341 330 308 290 317 291
125 136 136 132 131 140 140 125 128 128 131 126 134 129 130 133 122 136 112 113 121 146 134 14 46 69 254 250 277 283 286 299 282 307 0 312 283 282
66 95 101 133 142 143 141 135 141 140 136 134 133 140 149 151 132 117 108 115 126 126 117 68 19 18 359 337 230 291 288 261 292 283 314 297 297 305
106 103 121 134 133 131 132 136 118 136 135 141 142 145 147 141 140 142 104 104 75 82 44 53 76 99 71 304 294 17 237 300 321 324 357 213 254 300
124 132 128 125 133 135 132 119 120 123 125 130 133 134 134 136 119 134 136 127 115 93 67 22 62 140 146 202 240 275 354 120 90 288 300 283 250 281
132 132 131 131 131 133 126 124 130 128 125 121 119 124 125 121 106 117 117 103 109 93 107 179 109 345 143 31 8 310 311 353 356 188 268 320 302 316
104 122 126 127 130 128 122 119 113 119 122 119 128 127 120 123 128 131 132 126 111 130 121 30 351 30 57 110 243 289 304 316 310 311 308 281 175 300
108 115 119 119 119 120 121 122 125 120 128 125 124 122 128 110 105 102 108 97 122 100 110 79 9 31 62 74 146 287 304 308 330 336 309 340 332 319